FW8724 Weather Reports


Display with metric or nautical units.
time (UTC)temp
F
wind
direction
speed
MPH
gust
MPH
rain 1hr
in
rain 24hr
in
rain mn
in
humidity
%
barometer
mb
20260505041545 45 213 10.0 18.0 0.00 0.17 0.00 78 1005.8
20260505040044 45 221 10.0 20.0 0.00 0.17 0.00 78 1005.5
20260505034538 45 214 11.0 21.0 0.00 0.17 0.00 77 1005.4
20260505033044 45 257 8.0 21.0 0.00 0.17 0.00 77 1005.4
20260505031539 45 213 9.0 20.0 0.00 0.17 0.00 77 1005.0
20260505030047 45 230 10.0 21.0 0.00 0.17 0.00 77 1004.8
20260505024544 45 206 11.0 23.0 0.00 0.17 0.17 76 1004.6
20260505023045 45 238 11.0 21.0 0.00 0.17 0.17 77 1004.3
20260505021546 45 236 11.0 25.0 0.00 0.17 0.17 77 1004.2
20260505020045 45 228 12.0 24.0 0.00 0.17 0.17 75 1004.0
20260505014546 47 221 12.0 25.0 0.00 0.17 0.17 72 1003.8
20260505013044 47 217 13.0 25.0 0.00 0.17 0.17 71 1003.8
20260505011549 47 197 13.0 24.0 0.00 0.17 0.17 70 1003.4
20260505010042 47 250 13.0 27.0 0.00 0.17 0.17 70 1003.5
20260505004540 46 223 12.0 23.0 0.00 0.21 0.17 71 1003.4
20260505003047 46 229 10.0 19.0 0.00 0.21 0.17 67 1003.4
20260505001546 47 240 13.0 24.0 0.00 0.21 0.17 64 1003.3
20260505000047 47 219 14.0 26.0 0.00 0.21 0.17 65 1003.0
20260504234543 47 288 14.0 28.0 0.00 0.30 0.17 63 1002.6
20260504233042 47 222 14.0 25.0 0.00 0.30 0.17 63 1002.5
20260504231539 44 255 5.0 12.0 0.00 0.30 0.17 70 1002.4
20260504230038 43 267 2.0 8.0 0.00 0.30 0.17 71 1002.4
20260504224548 44 236 1.0 2.0 0.00 0.35 0.17 69 1002.5
20260504223045 45 0 2.0 3.0 0.00 0.35 0.17 68 1002.3
20260504221543 45 225 3.0 7.0 0.00 0.35 0.17 67 1002.3
20260504220110 46 276 4.0 8.0 0.00 0.35 0.17 68 1002.2
20260504214551 46 219 7.0 14.0 0.00 0.40 0.17 66 1001.9
20260504213047 46 254 7.0 12.0 0.00 0.40 0.17 67 1001.7
20260504211545 46 246 6.0 13.0 0.00 0.40 0.17 68 1001.5
20260504210044 46 243 8.0 13.0 0.00 0.40 0.17 68 1001.3
20260504204539 46 232 7.0 15.0 0.00 0.46 0.17 70 1001.0
20260504203041 46 274 8.0 15.0 0.00 0.46 0.17 72 1000.9
20260504201548 45 220 8.0 16.0 0.00 0.46 0.17 75 1000.7
20260504200043 45 221 9.0 16.0 0.00 0.46 0.17 75 1000.5
20260504194541 46 281 7.0 14.0 0.00 0.46 0.17 74 1000.2
20260504193045 46 214 7.0 14.0 0.00 0.46 0.17 77 1000.0
20260504191556 44 221 6.0 14.0 0.00 0.46 0.17 80 999.8
20260504190049 43 249 6.0 14.0 0.00 0.46 0.17 83 999.6
20260504184609 42 198 7.0 15.0 0.00 0.46 0.17 84 999.3
20260504183051 42 237 7.0 13.0 0.00 0.46 0.17 84 999.3
20260504181549 42 238 7.0 14.0 0.00 0.46 0.17 85 999.2
20260504180045 42 270 9.0 16.0 0.00 0.46 0.17 85 999.2
20260504174541 41 247 8.0 13.0 0.00 0.46 0.17 87 999.0
20260504173040 40 201 6.0 15.0 0.00 0.46 0.17 87 998.9
20260504171539 41 288 8.0 17.0 0.00 0.46 0.17 86 998.7
20260504081541 37 284 13.0 17.0 0.04 0.41 0.12 93 977.4
20260504044551 41 88 0.0 8.0 0.00 0.29 0.00 85 975.5
20260504043042 41 71 3.0 8.0 0.00 0.29 0.00 84 975.8